Newport, RI

3:19 PM EST on January 19, 2018 (GMT -0500)
Newport State

Weather History for KUUU - September, 2013

Change the Weather History Date:

Thursday, September 12, 2013

  Actual Average Record
Temperature  
Mean Temperature 71 °F -  
Max Temperature 73 °F 73 °F 87 °F (1961)
Min Temperature 68 °F 58 °F 44 °F (1967)
Cooling Degree Days 6    
Growing Degree Days 21 (Base 50)    
Moisture  
Dew Point 68 °F    
Average Humidity 93    
Maximum Humidity 97    
Minimum Humidity 84    
Precipitation  
Precipitation 0.10 in - - ()
Sea Level Pressure  
Sea Level Pressure 29.86 in    
Wind  
Wind Speed 8 mph (SSW)    
Max Wind Speed 13 mph    
Max Gust Speed 25 mph    
Visibility 5 miles    
Events Rain    
Averages and records for this station are not official NWS values.
T = Trace of Precipitation, MM = Missing Value Source: NWS Daily Summary

Daily Weather History Graph

Daily Weather History Graph

Search for Another Location

Airport or City:

Trip Planner

Search our weather history database for the weather conditions in past years. The results will help you decide how hot, cold, wet, or windy it might be!

Date:

Astronomy

Sep. 12, 2013 Rise Set
Actual Time 6:22 AM EDT 6:59 PM EDT
Civil Twilight 5:54 AM EDT 7:27 PM EDT
Nautical Twilight 5:21 AM EDT 8:00 PM EDT
Astronomical Twilight 4:47 AM EDT 8:33 PM EDT
Moon 1:52 PM EDT (9/12) 11:46 PM EDT (9/12)
Length of Visible Light 13h 32m
Length of Day
12h 36m
Waxing Crescent, 50% of the Moon is Illuminated
Sep 12
Waxing Crescent
Sep 12
First Quarter
Sep 19
Full
Sep 26
Last Quarter
Oct 4
New

Hourly Weather History & Observations

Time (EDT) Temp. Dew Point Humidity Pressure Visibility Wind Dir Wind Speed Gust Speed Precip Events Conditions
12:53 AM 69.1 °F 68.0 °F 96% 29.99 in 4.0 mi South 5.8 mph - N/A   Clear
1:53 AM 69.1 °F 68.0 °F 96% 29.97 in 4.0 mi South 6.9 mph - N/A   Clear
2:53 AM 69.1 °F 68.0 °F 96% 29.95 in 4.0 mi South 6.9 mph - N/A   Clear
3:53 AM 69.1 °F 68.0 °F 96% 29.96 in 4.0 mi South 9.2 mph - N/A   Partly Cloudy
4:23 AM 69.8 °F 68.0 °F 94% 29.96 in 4.0 mi SSW 5.8 mph - N/A   Mostly Cloudy
4:53 AM 69.1 °F 68.0 °F 96% 29.96 in 4.0 mi South 8.1 mph - N/A   Overcast
5:40 AM 69.8 °F 68.0 °F 94% 29.96 in 3.0 mi SSW 5.8 mph - N/A   Overcast
5:53 AM 69.1 °F 68.0 °F 96% 29.95 in 3.0 mi SSW 5.8 mph - N/A   Overcast
6:07 AM 69.8 °F 68.0 °F 94% 29.96 in 2.5 mi SSW 8.1 mph - N/A   Overcast
6:27 AM 69.8 °F 68.0 °F 94% 29.96 in 3.0 mi SSW 10.4 mph - N/A   Overcast
6:34 AM 69.8 °F 68.0 °F 94% 29.95 in 2.0 mi SSW 8.1 mph - N/A   Overcast
6:53 AM 69.1 °F 68.0 °F 96% 29.95 in 2.5 mi SSW 8.1 mph - N/A   Overcast
7:19 AM 69.8 °F 68.0 °F 94% 29.96 in 3.0 mi Variable 6.9 mph - N/A   Overcast
7:53 AM 70.0 °F 68.0 °F 93% 29.95 in 3.0 mi SSW 6.9 mph 18.4 mph N/A   Overcast
8:53 AM 71.1 °F 68.0 °F 90% 29.94 in 4.0 mi SSW 9.2 mph 18.4 mph N/A   Overcast
9:53 AM 73.0 °F 68.0 °F 84% 29.93 in 6.0 mi SSW 12.7 mph 21.9 mph N/A   Haze
10:53 AM 73.0 °F 69.1 °F 87% 29.91 in 6.0 mi SSW 12.7 mph 25.3 mph N/A   Overcast
11:53 AM 72.0 °F 69.1 °F 91% 29.90 in 6.0 mi SSW 9.2 mph 21.9 mph N/A   Overcast
12:53 PM 72.0 °F 69.1 °F 91% 29.88 in 5.0 mi SSW 11.5 mph 18.4 mph N/A   Overcast
1:53 PM 73.0 °F 69.1 °F 87% 29.86 in 5.0 mi SSW 11.5 mph 18.4 mph N/A   Overcast
2:53 PM 73.0 °F 70.0 °F 90% 29.83 in 6.0 mi South 11.5 mph 20.7 mph N/A   Overcast
3:53 PM 72.0 °F 69.1 °F 91% 29.81 in 6.0 mi SSW 10.4 mph - N/A   Overcast
4:53 PM 71.1 °F 69.1 °F 93% 29.78 in 4.0 mi South 8.1 mph 19.6 mph N/A   Overcast
5:53 PM 70.0 °F 69.1 °F 97% 29.78 in 4.0 mi SSW 10.4 mph 16.1 mph N/A   Overcast
6:53 PM 70.0 °F 69.1 °F 97% 29.76 in 5.0 mi South 9.2 mph 17.3 mph N/A   Overcast
7:53 PM 70.0 °F 68.0 °F 93% 29.75 in 6.0 mi South 11.5 mph 20.7 mph N/A   Overcast
8:53 PM 70.0 °F 68.0 °F 93% 29.75 in 6.0 mi South 10.4 mph 17.3 mph N/A   Overcast
9:53 PM 70.0 °F 68.0 °F 93% 29.73 in 8.0 mi South 9.2 mph - N/A   Overcast
10:13 PM 69.8 °F 68.0 °F 94% 29.74 in 9.0 mi South 11.5 mph 17.3 mph N/A   Overcast
10:37 PM 69.8 °F 68.0 °F 94% 29.74 in 9.0 mi SSW 10.4 mph 21.9 mph N/A   Overcast
10:47 PM 69.8 °F 66.2 °F 88% 29.74 in 8.0 mi SSW 9.2 mph 25.3 mph 0.00 in Rain Light Rain
10:53 PM 70.0 °F 66.9 °F 90% 29.73 in 9.0 mi SSW 12.7 mph 23.0 mph 0.00 in Rain Light Rain
11:08 PM 69.8 °F 66.2 °F 88% 29.73 in 4.0 mi Variable 5.8 mph - 0.01 in Rain Rain
11:30 PM 69.8 °F 68.0 °F 94% 29.72 in 2.5 mi SSW 4.6 mph - 0.06 in Rain Heavy Rain
11:40 PM 69.8 °F 66.2 °F 88% 29.72 in 4.0 mi SSW 4.6 mph - 0.07 in Rain Rain
11:53 PM 68.0 °F 66.9 °F 96% 29.70 in 3.0 mi SSW 4.6 mph - 0.10 in Rain Rain